Location: Newark
(44.9861°N, 0.2536°E)
Time: 17:47:29
(UTC+00:00)

DUCHIFAT 1 - Visible Passes

Search period start: 03 July 2020 00:00
Search period end: 13 July 2020 00:00
Orbit: 587 x 603 km, 97.9° (Epoch: 02 July)

Date Brightness Start Highest point End Pass type
(mag) Time Alt. Az. Time Alt. Az. Time Alt. Az.
03 Jul ? 00:11:30 10° ENE 00:13:47 14° E 00:14:32 14° ESE visible
03 Jul ? 01:45:36 10° N 01:49:44 55° WNW 01:51:11 36° SW visible
04 Jul ? 00:20:33 10° NE 00:23:26 18° E 00:24:10 17° ESE visible
04 Jul ? 01:55:14 10° N 01:59:15 44° WNW 02:00:49 30° WSW visible
05 Jul ? 00:29:46 10° NE 00:33:04 22° E 00:33:48 21° ESE visible
05 Jul ? 02:04:54 10° N 02:08:45 35° WNW 02:10:27 25° WSW visible
06 Jul ? 00:39:04 10° NE 00:42:41 27° E 00:43:26 26° ESE visible
06 Jul ? 02:14:37 10° N 02:18:15 28° WNW 02:20:04 20° WSW visible
07 Jul ? 00:48:26 10° NNE 00:52:18 34° E 00:53:03 32° ESE visible
07 Jul ? 02:24:23 10° NNW 02:27:44 23° WNW 02:29:42 17° WSW visible
08 Jul ? 00:57:52 10° NNE 01:01:54 43° E 01:02:41 39° SE visible
08 Jul ? 02:34:13 10° NNW 02:37:11 19° WNW 02:39:19 13° W visible
09 Jul ? 01:07:20 10° NNE 01:11:29 55° E 01:12:18 46° SE visible
09 Jul ? 02:44:08 10° NNW 02:46:38 16° WNW 02:48:56 11° W visible
10 Jul ? 01:16:50 10° NNE 01:21:03 71° ESE 01:21:55 52° SSE visible
10 Jul ? 02:54:14 10° NW 02:56:05 13° WNW 02:57:55 10° W visible
11 Jul ? 01:26:23 10° NNE 01:30:37 89° SE 01:31:32 54° SSW visible
11 Jul ? 03:04:55 10° NW 03:05:30 10° WNW 03:06:04 10° WNW visible
12 Jul ? 00:03:01 10° ENE 00:04:02 11° E 00:04:31 11° E visible
12 Jul ? 01:35:57 10° N 01:40:09 72° WNW 01:41:09 49° SW visible
